Regional Weather Roundup
Issued by NWS

Home | Current Version | Previous Version | Graphics & Text | Print | Product List | Glossary On
Versions: 1 2 3 4 5 6 7 8 9 10 11 12 13 14 15 16 17 18 19 20 21 22 23 24 25 26 27 28 29 30 31 32 33 34 35 36 37 38 39 40 41 42 43 44 45 46 47 48 49 50
000
ASUS45 KCYS 011710
RWRWY

WYOMING REGIONAL WEATHER ROUNDUP
NATIONAL WEATHER SERVICE CHEYENNE WY
1000 AM MST SUN MAR 01 2015

NOTE:  "FAIR" INDICATES FEW OR NO CLOUDS BELOW 12,000 FEET
WITH NO SIGNIFICANT WEATHER AND/OR OBSTRUCTIONS TO VISIBILITY.

WYZ001-011800-
YELLOWSTONE NATIONAL PARK

CITY           SKY/WX    TMP DP  RH WIND       PRES   REMARKS
LK YELLOWSTONE   N/A     -3  -8  79 SE3       30.13S
W YELLOWSTONE  NOT AVBL

$$
WYZ002>013-054>058-071-098>099-011800-
NORTHERN WYOMING

CITY           SKY/WX    TMP DP  RH WIND       PRES   REMARKS
JACKSON        SUNNY      5   0  78 N9        30.17S WCI  -9
CODY           FAIR      18   9  68 CALM      30.23S
GREYBULL       FAIR      23   8  52 E3        30.30F
WORLAND        FAIR      21  10  62 SW3       30.30R
SHERIDAN       FAIR      21   9  59 NW17      30.27S WCI   7
BUFFALO        FAIR      17   6  62 NW12      30.23R WCI   4
GILLETTE       FAIR      19   8  62 NW16      30.25R WCI   4
HULETT         PTSUNNY   21  12  68 W9G18     30.25R WCI  11
NEWCASTLE      FAIR      21  10  63 NW14      30.27R WCI   8

$$
WYZ014>020-022>026-101>103-011800-
CENTRAL WYOMING

CITY           SKY/WX    TMP DP  RH WIND       PRES   REMARKS
BIG PINEY      CLOUDY    18  10  71 CALM      30.14R
PINEDALE       FAIR      18   9  68 CALM      30.13S
DUBOIS         LGT SNOW  10   3  72 CALM      30.11S
LANDER         CLOUDY    19  10  68 SW6       30.21R WCI  11
RIVERTON       CLOUDY    18  10  71 S6        30.22S WCI  10
CASPER         FAIR      21   8  57 CALM      30.22R
DOUGLAS        CLOUDY    22   8  55 NW13      30.25R WCI  10

$$
WYZ021-027>030-104>119-011800-
SOUTHERN WYOMING

CITY           SKY/WX    TMP DP  RH WIND       PRES   REMARKS
EVANSTON       CLOUDY    20  15  81 E15       30.09R WCI   6
FORT BRIDGER   FLURRIES  19  17  91 NE7       30.15R WCI   9
ROCK SPRINGS   FAIR      17   8  67 E10       30.16R WCI   5
DIXON          CLOUDY    21  15  76 CALM      30.17R
RAWLINS        CLOUDY    16   9  74 CALM      30.16R
SARATOGA       PTSUNNY   16  12  86 MISG      30.15R
LARAMIE        FLURRIES  13   7  77 N3        30.12R
CHEYENNE       CLOUDY    17  10  74 N8        30.16F WCI   7
TORRINGTON     CLOUDY    25  13  60 W6        30.26S WCI  18
PINE BLUFFS    CLOUDY    21  16  79 N8        30.23R WCI  12

$$



USA.gov is the U.S. government's official web portal to all federal, state and local government web resources and services.